Date,TemperatureHighF,TemperatureAvgF,TemperatureLowF,DewpointHighF,DewpointAvgF,DewpointLowF,HumidityHigh,HumidityAvg,HumidityLow,PressureMaxIn,PressureMinIn,WindSpeedMaxMPH,WindSpeedAvgMPH,GustSpeedMaxMPH,PrecipitationSumIn
2013-3-1,57.2,44.3,32.4,36.0,31.0,26.0,88,63,31,30.20,30.09,11,2,0,0.00
2013-3-2,49.5,39.8,32.5,32.0,26.9,24.0,84,62,39,30.28,30.16,10,2,0,0.00
2013-3-3,61.8,44.3,26.6,35.0,29.4,24.0,92,61,30,30.28,30.06,7,2,0,0.00
2013-3-4,74.4,59.4,41.6,59.0,49.9,36.0,92,72,50,30.06,29.76,13,5,0,0.00
2013-3-5,68.8,62.1,48.2,62.0,45.2,25.0,90,58,29,30.26,29.79,16,4,0,0.00
2013-3-6,64.0,49.6,33.1,31.0,27.2,23.0,72,44,24,30.37,30.20,5,1,0,0.00
2013-3-7,64.2,49.8,34.0,37.0,32.8,29.0,86,55,30,30.34,30.19,5,0,0,0.00
2013-3-8,71.5,54.7,35.9,46.0,40.7,33.0,92,63,35,30.27,30.07,6,1,0,0.00
2013-3-9,71.5,62.3,53.5,60.0,54.6,46.0,85,76,65,30.08,29.85,10,2,0,0.00
2013-3-10,71.8,60.6,50.1,64.0,57.2,48.0,94,88,68,29.95,29.78,18,2,0,0.24
2013-3-11,58.0,49.2,40.2,46.0,34.7,32.0,87,59,38,30.05,29.93,13,2,0,0.01
2013-3-12,68.8,50.2,32.4,42.0,33.2,30.0,93,59,25,30.25,30.05,6,1,0,0.00
2013-3-13,69.1,53.7,38.8,39.0,33.0,27.0,88,51,24,30.42,30.25,7,2,0,0.00
2013-3-14,73.5,54.8,35.9,43.0,35.2,31.0,91,53,25,30.42,30.23,6,1,0,0.00
2013-3-15,79.6,62.4,43.5,56.0,47.6,40.0,92,62,32,30.26,30.02,10,2,0,0.00
2013-3-16,78.8,66.1,53.2,60.0,55.0,51.0,94,71,43,30.04,29.83,17,3,0,0.00
2013-3-17,80.7,66.6,56.2,66.0,60.1,54.0,95,81,56,29.89,29.69,10,2,0,0.00
2013-3-18,86.1,74.0,65.8,67.0,63.8,51.0,93,73,48,29.93,29.66,8,2,0,0.00
2013-3-19,75.3,62.8,50.7,50.0,42.5,37.0,80,51,30,30.03,29.90,7,2,0,0.00
2013-3-20,71.8,59.1,48.0,47.0,38.9,27.0,88,52,21,30.20,30.01,7,2,0,0.13
2013-3-21,66.1,54.0,42.2,43.0,37.1,33.0,85,56,31,30.05,29.75,10,2,0,0.00
2013-3-22,80.1,66.5,56.5,67.0,58.3,44.0,87,75,56,29.79,29.63,7,2,0,0.00
2013-3-23,73.9,66.5,58.4,66.0,62.3,56.0,92,86,75,29.77,29.53,7,1,0,0.28
2013-3-24,59.6,54.8,42.3,55.0,42.8,30.0,91,67,37,30.09,29.61,16,4,0,0.01
2013-3-25,59.6,46.6,34.4,30.0,24.6,16.0,73,46,22,30.32,30.09,11,3,0,0.00
2013-3-26,57.0,43.6,27.9,30.0,24.5,22.0,84,50,29,30.45,30.30,8,1,0,0.00
2013-3-27,66.0,48.0,29.8,35.0,30.5,26.0,91,56,28,30.43,30.20,7,1,0,0.00
2013-3-28,71.3,55.5,39.8,47.0,37.8,33.0,90,57,26,30.32,30.16,6,1,0,0.00
2013-3-29,79.2,64.6,51.1,57.0,50.5,42.0,94,65,30,30.26,30.09,8,1,0,0.00
2013-3-30,78.1,65.2,56.6,63.0,57.5,54.0,94,78,52,30.14,29.92,11,2,0,0.11
2013-3-31,72.1,62.6,56.2,65.0,59.8,55.0,94,90,73,30.00,29.82,8,1,0,0.93